Back to catalog

STARLINK-5192

AliveCommunicationsVLEO
NORAD 54074·PAYLOAD·🇺🇸 United States

Launched Oct 20, 2022 from Cape Canaveral Space Force Station

Loading…

Next Passes (next 24 hours)

TLE

FreshSource: CelesTrak SupGP

Epoch: Sep 14, 2026, 14:20 UTC

1 54074C 22136Z   26257.59770833 -.00013395  00000+0 -38329-3 0  2575
2 54074  53.1584 207.7442 0001298  92.2336 229.1397 15.35402287    10

Track STARLINK-5192 in real time with AllMySat

Download on the App Store